| time (UTC) | temp F | wind direction | speed MPH | gust MPH | rain 1hr in | rain 24hr in | rain mn in | humidity % | barometer mb |
| 20260510061003 | 72 | 90 | 3.0 | 6.0 | 0.00 | 0.19 | 0.00 | 90 | 1012.0 |
| 20260510060501 | 72 | 76 | 3.0 | 7.0 | 0.00 | 0.19 | 0.00 | 90 | 1012.1 |
| 20260510060009 | 72 | 102 | 4.0 | 7.0 | 0.00 | 0.19 | 0.00 | 90 | 1012.0 |
| 20260510055501 | 72 | 85 | 3.0 | 6.0 | 0.00 | 0.19 | 0.00 | 89 | 1012.1 |
| 20260510055000 | 72 | 67 | 3.0 | 4.0 | 0.00 | 0.19 | 0.00 | 89 | 1011.9 |
| 20260510054604 | 72 | 87 | 1.0 | 3.0 | 0.00 | 0.19 | 0.00 | 89 | 1011.8 |
| 20260510054101 | 72 | 103 | 1.0 | 3.0 | 0.00 | 0.19 | 0.00 | 89 | 1011.8 |
| 20260510053602 | 72 | 74 | 2.0 | 3.0 | 0.00 | 0.19 | 0.00 | 88 | 1011.9 |
| 20260510053100 | 72 | 85 | 2.0 | 4.0 | 0.00 | 0.19 | 0.00 | 88 | 1011.9 |
| 20260510052559 | 72 | 85 | 2.0 | 6.0 | 0.00 | 0.19 | 0.00 | 88 | 1011.9 |
| 20260510052058 | 73 | 71 | 4.0 | 6.0 | 0.00 | 0.19 | 0.00 | 87 | 1011.9 |
| 20260510051607 | 73 | 79 | 2.0 | 6.0 | 0.00 | 0.19 | 0.00 | 87 | 1011.8 |
| 20260510051058 | 73 | 111 | 3.0 | 6.0 | 0.00 | 0.19 | 0.00 | 86 | 1011.6 |
| 20260510050557 | 74 | 126 | 3.0 | 6.0 | 0.00 | 0.19 | 0.00 | 86 | 1011.5 |
| 20260510050052 | 74 | 123 | 3.0 | 8.0 | 0.00 | 0.19 | 0.00 | 85 | 1011.5 |
| 20260510045552 | 75 | 105 | 4.0 | 10.0 | 0.00 | 0.19 | 0.19 | 84 | 1011.6 |
| 20260510045052 | 75 | 141 | 6.0 | 10.0 | 0.00 | 0.19 | 0.19 | 84 | 1011.3 |
| 20260510044602 | 75 | 178 | 6.0 | 10.0 | 0.00 | 0.19 | 0.19 | 84 | 1011.1 |
| 20260510044052 | 75 | 196 | 7.0 | 11.0 | 0.00 | 0.19 | 0.19 | 85 | 1011.0 |
| 20260510043552 | 74 | 184 | 6.0 | 11.0 | 0.00 | 0.19 | 0.19 | 85 | 1010.9 |
| 20260510043051 | 74 | 178 | 5.0 | 8.0 | 0.00 | 0.19 | 0.19 | 85 | 1011.0 |
| 20260510042551 | 74 | 182 | 6.0 | 7.0 | 0.00 | 0.19 | 0.19 | 85 | 1011.0 |
| 20260510042150 | 73 | 161 | 5.0 | 7.0 | 0.00 | 0.19 | 0.19 | 85 | 1011.1 |
| 20260510041603 | 73 | 143 | 5.0 | 9.0 | 0.00 | 0.19 | 0.19 | 85 | 1011.2 |
| 20260510041050 | 73 | 166 | 6.0 | 9.0 | 0.00 | 0.19 | 0.19 | 85 | 1011.2 |
| 20260510040550 | 73 | 158 | 7.0 | 9.0 | 0.00 | 0.19 | 0.19 | 85 | 1011.2 |
| 20260510040048 | 73 | 159 | 5.0 | 8.0 | 0.00 | 0.19 | 0.19 | 85 | 1011.1 |
| 20260510035550 | 74 | 135 | 5.0 | 7.0 | 0.00 | 0.19 | 0.19 | 84 | 1011.2 |
| 20260510035049 | 74 | 140 | 4.0 | 6.0 | 0.00 | 0.19 | 0.19 | 84 | 1011.1 |
| 20260510034557 | 74 | 144 | 3.0 | 5.0 | 0.00 | 0.19 | 0.19 | 84 | 1011.2 |
| 20260510034049 | 74 | 133 | 3.0 | 5.0 | 0.00 | 0.19 | 0.19 | 83 | 1011.1 |
| 20260510033548 | 74 | 123 | 2.0 | 5.0 | 0.00 | 0.19 | 0.19 | 83 | 1011.1 |
| 20260510033049 | 74 | 138 | 3.0 | 5.0 | 0.00 | 0.19 | 0.19 | 83 | 1011.0 |
| 20260510032548 | 74 | 135 | 3.0 | 5.0 | 0.00 | 0.19 | 0.19 | 83 | 1011.0 |
| 20260510032047 | 74 | 142 | 2.0 | 4.0 | 0.00 | 0.19 | 0.19 | 83 | 1011.0 |
| 20260510031551 | 75 | 120 | 2.0 | 4.0 | 0.00 | 0.19 | 0.19 | 82 | 1010.9 |
| 20260510031046 | 75 | 127 | 2.0 | 4.0 | 0.00 | 0.19 | 0.19 | 81 | 1010.8 |
| 20260510030546 | 75 | 117 | 2.0 | 4.0 | 0.00 | 0.19 | 0.19 | 81 | 1010.8 |
| 20260510030055 | 75 | 148 | 1.0 | 3.0 | 0.00 | 0.19 | 0.19 | 80 | 1010.7 |
| 20260510025546 | 75 | 117 | 2.0 | 4.0 | 0.00 | 0.19 | 0.19 | 79 | 1010.6 |
| 20260510025048 | 76 | 121 | 2.0 | 7.0 | 0.00 | 0.19 | 0.19 | 78 | 1010.5 |
| 20260510024551 | 76 | 141 | 4.0 | 5.0 | 0.00 | 0.19 | 0.19 | 77 | 1010.4 |
| 20260510024045 | 76 | 157 | 4.0 | 6.0 | 0.00 | 0.19 | 0.19 | 76 | 1010.2 |
| 20260510023548 | 77 | 154 | 3.0 | 6.0 | 0.00 | 0.19 | 0.19 | 75 | 1010.0 |
| 20260510023045 | 77 | 144 | 3.0 | 7.0 | 0.00 | 0.19 | 0.19 | 75 | 1009.9 |
| 20260510022545 | 77 | 155 | 4.0 | 9.0 | 0.00 | 0.19 | 0.19 | 74 | 1009.8 |
| 20260510022047 | 77 | 146 | 5.0 | 10.0 | 0.00 | 0.19 | 0.19 | 73 | 1009.5 |
| 20260510021545 | 78 | 165 | 6.0 | 12.0 | 0.00 | 0.19 | 0.19 | 72 | 1009.3 |
| 20260510021045 | 78 | 170 | 8.0 | 12.0 | 0.00 | 0.19 | 0.19 | 72 | 1009.1 |
| 20260510020544 | 78 | 155 | 7.0 | 10.0 | 0.00 | 0.19 | 0.19 | 71 | 1009.0 |
| 20260510020044 | 78 | 174 | 8.0 | 10.0 | 0.00 | 0.19 | 0.19 | 71 | 1008.8 |
| 20260510015544 | 78 | 174 | 9.0 | 11.0 | 0.00 | 0.19 | 0.19 | 70 | 1008.8 |
| 20260510015046 | 79 | 165 | 9.0 | 10.0 | 0.00 | 0.19 | 0.19 | 70 | 1009.0 |
| 20260510014543 | 79 | 179 | 6.0 | 7.0 | 0.00 | 0.19 | 0.19 | 69 | 1009.2 |
| 20260510014043 | 79 | 167 | 4.0 | 6.0 | 0.00 | 0.19 | 0.19 | 69 | 1009.4 |
| 20260510013543 | 80 | 169 | 3.0 | 7.0 | 0.00 | 0.19 | 0.19 | 69 | 1009.4 |
| 20260510013051 | 80 | 157 | 4.0 | 8.0 | 0.00 | 0.19 | 0.19 | 69 | 1009.4 |
| 20260510012542 | 80 | 153 | 5.0 | 8.0 | 0.00 | 0.19 | 0.19 | 69 | 1009.5 |
| 20260510012042 | 80 | 175 | 5.0 | 8.0 | 0.00 | 0.19 | 0.19 | 70 | 1009.4 |
| 20260510011545 | 80 | 157 | 6.0 | 8.0 | 0.00 | 0.19 | 0.19 | 70 | 1009.4 |
| 20260510011042 | 80 | 149 | 5.0 | 8.0 | 0.00 | 0.19 | 0.19 | 70 | 1009.4 |
| 20260510010541 | 81 | 158 | 6.0 | 8.0 | 0.00 | 0.19 | 0.19 | 69 | 1009.4 |
| 20260510010042 | 81 | 153 | 6.0 | 8.0 | 0.00 | 0.19 | 0.19 | 69 | 1009.4 |
| 20260510005541 | 82 | 159 | 5.0 | 7.0 | 0.00 | 0.19 | 0.19 | 68 | 1009.5 |
| 20260510005043 | 82 | 153 | 4.0 | 7.0 | 0.00 | 0.19 | 0.19 | 68 | 1009.6 |
| 20260510004540 | 82 | 151 | 4.0 | 9.0 | 0.00 | 0.19 | 0.19 | 67 | 1009.4 |
| 20260510004040 | 83 | 128 | 7.0 | 12.0 | 0.00 | 0.19 | 0.19 | 65 | 1009.4 |
| 20260510003551 | 83 | 162 | 9.0 | 12.0 | 0.00 | 0.19 | 0.19 | 65 | 1009.4 |
| 20260510003052 | 84 | 159 | 8.0 | 14.0 | 0.00 | 0.19 | 0.19 | 65 | 1009.3 |
| 20260510002539 | 84 | 150 | 9.0 | 14.0 | 0.00 | 0.19 | 0.19 | 64 | 1009.2 |
| 20260510002040 | 84 | 157 | 8.0 | 14.0 | 0.00 | 0.19 | 0.19 | 63 | 1009.1 |
| 20260510001539 | 85 | 157 | 9.0 | 14.0 | 0.00 | 0.19 | 0.19 | 63 | 1009.0 |
| 20260510001039 | 85 | 156 | 9.0 | 14.0 | 0.00 | 0.19 | 0.19 | 64 | 1008.9 |
| 20260510000539 | 85 | 139 | 10.0 | 14.0 | 0.00 | 0.19 | 0.19 | 63 | 1008.9 |
| 20260510000038 | 85 | 130 | 11.0 | 17.0 | 0.00 | 0.19 | 0.19 | 63 | 1008.9 |
| 20260509235538 | 86 | 126 | 12.0 | 17.0 | 0.00 | 0.19 | 0.19 | 62 | 1008.8 |
| 20260509235038 | 86 | 142 | 11.0 | 16.0 | 0.00 | 0.19 | 0.19 | 62 | 1008.8 |
| 20260509234555 | 87 | 149 | 10.0 | 15.0 | 0.00 | 0.19 | 0.19 | 61 | 1008.8 |
| 20260509234037 | 87 | 152 | 10.0 | 16.0 | 0.00 | 0.19 | 0.19 | 61 | 1008.7 |
| 20260509233538 | 87 | 146 | 11.0 | 16.0 | 0.00 | 0.19 | 0.19 | 62 | 1008.8 |
| 20260509233044 | 87 | 159 | 13.0 | 17.0 | 0.00 | 0.19 | 0.19 | 60 | 1008.8 |
| 20260509232540 | 88 | 146 | 10.0 | 16.0 | 0.00 | 0.19 | 0.19 | 59 | 1008.8 |
| 20260509232037 | 88 | 131 | 11.0 | 16.0 | 0.00 | 0.19 | 0.19 | 58 | 1008.7 |
| 20260509231552 | 88 | 142 | 11.0 | 17.0 | 0.00 | 0.19 | 0.19 | 60 | 1008.7 |
| 20260509231038 | 88 | 147 | 13.0 | 17.0 | 0.00 | 0.19 | 0.19 | 57 | 1008.7 |
| 20260509230536 | 89 | 136 | 12.0 | 15.0 | 0.00 | 0.19 | 0.19 | 57 | 1008.7 |
| 20260509230036 | 89 | 139 | 9.0 | 15.0 | 0.00 | 0.19 | 0.19 | 57 | 1008.7 |
| 20260509225536 | 89 | 134 | 8.0 | 11.0 | 0.00 | 0.19 | 0.19 | 57 | 1008.7 |
| 20260509225038 | 89 | 167 | 6.0 | 12.0 | 0.00 | 0.19 | 0.19 | 55 | 1008.7 |
| 20260509224535 | 89 | 146 | 7.0 | 12.0 | 0.00 | 0.19 | 0.19 | 55 | 1008.6 |
| 20260509224038 | 90 | 126 | 7.0 | 12.0 | 0.00 | 0.19 | 0.19 | 55 | 1008.6 |
| 20260509223535 | 90 | 183 | 5.0 | 10.0 | 0.00 | 0.19 | 0.19 | 56 | 1008.6 |
| 20260509223037 | 90 | 121 | 3.0 | 8.0 | 0.00 | 0.19 | 0.19 | 55 | 1008.6 |
| 20260509222538 | 89 | 92 | 0.0 | 9.0 | 0.00 | 0.19 | 0.19 | 55 | 1008.6 |
| 20260509222036 | 89 | 115 | 3.0 | 11.0 | 0.00 | 0.19 | 0.19 | 57 | 1008.7 |
| 20260509221534 | 90 | 107 | 4.0 | 10.0 | 0.00 | 0.19 | 0.19 | 57 | 1008.7 |
| 20260509221036 | 89 | 98 | 1.0 | 6.0 | 0.00 | 0.19 | 0.19 | 54 | 1008.7 |
| 20260509220531 | 89 | 157 | 2.0 | 6.0 | 0.00 | 0.19 | 0.19 | 55 | 1008.7 |
| 20260509220031 | 89 | 157 | 2.0 | 8.0 | 0.00 | 0.19 | 0.19 | 58 | 1008.8 |
| 20260509215532 | 88 | 70 | 1.0 | 10.0 | 0.00 | 0.19 | 0.19 | 56 | 1008.7 |
| 20260509215031 | 89 | 134 | 4.0 | 12.0 | 0.00 | 0.19 | 0.19 | 56 | 1008.7 |
| 20260509214533 | 89 | 159 | 7.0 | 12.0 | 0.00 | 0.19 | 0.19 | 55 | 1008.8 |
| 20260509214035 | 89 | 128 | 3.0 | 11.0 | 0.00 | 0.19 | 0.19 | 58 | 1008.7 |
| 20260509213531 | 89 | 159 | 7.0 | 11.0 | 0.00 | 0.19 | 0.19 | 56 | 1008.7 |
| 20260509213031 | 89 | 144 | 6.0 | 8.0 | 0.00 | 0.19 | 0.19 | 56 | 1008.8 |
| 20260509212530 | 89 | 55 | 3.0 | 8.0 | 0.00 | 0.19 | 0.19 | 56 | 1008.7 |
| 20260509212029 | 89 | 43 | 3.0 | 8.0 | 0.00 | 0.19 | 0.19 | 56 | 1008.8 |
| 20260509211531 | 89 | 44 | 5.0 | 10.0 | 0.00 | 0.19 | 0.19 | 58 | 1008.9 |
| 20260509211029 | 89 | 64 | 5.0 | 10.0 | 0.00 | 0.19 | 0.19 | 57 | 1008.9 |
| 20260509210528 | 89 | 36 | 4.0 | 9.0 | 0.00 | 0.19 | 0.19 | 56 | 1008.9 |
| 20260509210030 | 89 | 34 | 3.0 | 10.0 | 0.00 | 0.19 | 0.19 | 57 | 1008.8 |
| 20260509205526 | 89 | 53 | 1.0 | 8.0 | 0.00 | 0.19 | 0.19 | 57 | 1008.9 |
| 20260509205026 | 89 | 17 | 2.0 | 8.0 | 0.00 | 0.19 | 0.19 | 57 | 1008.9 |
| 20260509204530 | 88 | 36 | 2.0 | 7.0 | 0.00 | 0.19 | 0.19 | 59 | 1008.9 |
| 20260509204029 | 88 | 122 | 2.0 | 7.0 | 0.00 | 0.19 | 0.19 | 57 | 1009.0 |
| 20260509203525 | 88 | 277 | 0.0 | 9.0 | 0.00 | 0.19 | 0.19 | 57 | 1009.0 |
| 20260509203034 | 88 | 360 | 4.0 | 9.0 | 0.00 | 0.19 | 0.19 | 57 | 1009.1 |
| 20260509202524 | 88 | 275 | 3.0 | 9.0 | 0.00 | 0.19 | 0.19 | 60 | 1009.1 |
| 20260509202026 | 88 | 336 | 5.0 | 9.0 | 0.00 | 0.19 | 0.19 | 59 | 1009.1 |
| 20260509201522 | 88 | 360 | 5.0 | 9.0 | 0.00 | 0.19 | 0.19 | 63 | 1009.2 |
| 20260509201021 | 87 | 271 | 1.0 | 8.0 | 0.00 | 0.19 | 0.19 | 60 | 1009.3 |
| 20260509200520 | 87 | 61 | 2.0 | 9.0 | 0.00 | 0.19 | 0.19 | 62 | 1009.3 |
| 20260509200020 | 87 | 319 | 5.0 | 11.0 | 0.00 | 0.19 | 0.19 | 62 | 1009.3 |
| 20260509195519 | 87 | 348 | 9.0 | 11.0 | 0.00 | 0.19 | 0.19 | 63 | 1009.3 |
| 20260509195022 | 87 | 355 | 7.0 | 11.0 | 0.00 | 0.19 | 0.19 | 63 | 1009.4 |
| 20260509194519 | 87 | 336 | 8.0 | 11.0 | 0.00 | 0.19 | 0.19 | 64 | 1009.5 |
| 20260509194017 | 86 | 355 | 2.0 | 11.0 | 0.00 | 0.19 | 0.19 | 63 | 1009.5 |
| 20260509193516 | 86 | 343 | 6.0 | 12.0 | 0.00 | 0.19 | 0.19 | 65 | 1009.6 |
| 20260509193017 | 86 | 10 | 8.0 | 12.0 | 0.00 | 0.19 | 0.19 | 66 | 1009.6 |
| 20260509192515 | 86 | 360 | 3.0 | 10.0 | 0.00 | 0.19 | 0.19 | 67 | 1009.7 |
| 20260509192018 | 86 | 331 | 6.0 | 11.0 | 0.00 | 0.19 | 0.19 | 66 | 1009.8 |
| 20260509191515 | 86 | 349 | 5.0 | 12.0 | 0.00 | 0.19 | 0.19 | 68 | 1009.8 |
| 20260509191018 | 85 | 335 | 5.0 | 12.0 | 0.00 | 0.19 | 0.19 | 67 | 1009.8 |
| 20260509190511 | 85 | 311 | 4.0 | 9.0 | 0.00 | 0.19 | 0.19 | 69 | 1009.8 |
| 20260509190017 | 85 | 275 | 3.0 | 9.0 | 0.00 | 0.19 | 0.19 | 69 | 1009.9 |
| 20260509185510 | 84 | 360 | 3.0 | 9.0 | 0.00 | 0.19 | 0.19 | 69 | 1010.0 |
| 20260509185010 | 84 | 336 | 2.0 | 11.0 | 0.00 | 0.19 | 0.19 | 70 | 1010.0 |
| 20260509184520 | 84 | 324 | 5.0 | 11.0 | 0.00 | 0.19 | 0.19 | 68 | 1010.2 |
| 20260509184009 | 84 | 19 | 4.0 | 8.0 | 0.00 | 0.19 | 0.19 | 70 | 1010.3 |
| 20260509183508 | 84 | 346 | 3.0 | 12.0 | 0.00 | 0.19 | 0.19 | 71 | 1010.4 |
| 20260509183007 | 83 | 294 | 4.0 | 12.0 | 0.00 | 0.19 | 0.19 | 69 | 1010.4 |
| 20260509182507 | 83 | 355 | 9.0 | 12.0 | 0.00 | 0.19 | 0.19 | 71 | 1010.3 |
| 20260509182005 | 83 | 52 | 1.0 | 5.0 | 0.00 | 0.19 | 0.19 | 70 | 1010.4 |
| 20260509181505 | 82 | 187 | 2.0 | 5.0 | 0.00 | 0.19 | 0.19 | 69 | 1010.6 |
| 20260509181006 | 82 | 337 | 3.0 | 9.0 | 0.00 | 0.19 | 0.19 | 72 | 1010.7 |
| 20260509180503 | 82 | 71 | 4.0 | 9.0 | 0.00 | 0.19 | 0.19 | 72 | 1010.7 |
| 20260509180005 | 82 | 338 | 3.0 | 9.0 | 0.00 | 0.19 | 0.19 | 72 | 1010.7 |
| 20260509175505 | 82 | 13 | 5.0 | 9.0 | 0.00 | 0.19 | 0.19 | 72 | 1010.6 |
| 20260509175000 | 82 | 21 | 2.0 | 10.0 | 0.00 | 0.19 | 0.19 | 73 | 1010.7 |
| 20260509174600 | 82 | 24 | 5.0 | 10.0 | 0.00 | 0.19 | 0.19 | 75 | 1010.8 |
| 20260509174059 | 81 | 360 | 2.0 | 6.0 | 0.00 | 0.19 | 0.19 | 74 | 1010.8 |
| 20260509173557 | 81 | 12 | 3.0 | 9.0 | 0.00 | 0.19 | 0.19 | 76 | 1010.9 |
| 20260509173102 | 81 | 351 | 6.0 | 9.0 | 0.00 | 0.19 | 0.19 | 77 | 1011.0 |
| 20260509172557 | 81 | 360 | 4.0 | 8.0 | 0.00 | 0.19 | 0.19 | 77 | 1011.0 |
| 20260509172056 | 81 | 339 | 3.0 | 8.0 | 0.00 | 0.19 | 0.19 | 76 | 1011.0 |
| 20260509171556 | 81 | 19 | 5.0 | 9.0 | 0.00 | 0.19 | 0.19 | 76 | 1011.1 |
| 20260509171057 | 81 | 58 | 4.0 | 9.0 | 0.00 | 0.19 | 0.19 | 79 | 1011.2 |
| 20260509170555 | 81 | 360 | 2.0 | 8.0 | 0.00 | 0.19 | 0.19 | 78 | 1011.1 |
| 20260509165555 | 80 | 346 | 2.0 | 6.0 | 0.00 | 0.19 | 0.19 | 77 | 1010.8 |
| 20260509165052 | 80 | 5 | 2.0 | 8.0 | 0.00 | 0.19 | 0.19 | 80 | 1010.6 |
| 20260509164553 | 80 | 61 | 3.0 | 6.0 | 0.00 | 0.19 | 0.19 | 81 | 1010.7 |
| 20260509164055 | 80 | 355 | 3.0 | 6.0 | 0.00 | 0.19 | 0.19 | 81 | 1010.6 |
| 20260509163551 | 80 | 27 | 3.0 | 6.0 | 0.00 | 0.19 | 0.19 | 80 | 1010.7 |
| 20260509163102 | 80 | 346 | 3.0 | 5.0 | 0.00 | 0.19 | 0.19 | 80 | 1010.5 |
| 20260509162550 | 80 | 360 | 0.0 | 4.0 | 0.00 | 0.19 | 0.19 | 79 | 1010.7 |
| 20260509162050 | 79 | 23 | 2.0 | 4.0 | 0.00 | 0.19 | 0.19 | 82 | 1010.7 |
| 20260509161553 | 79 | 128 | 0.0 | 2.0 | 0.00 | 0.19 | 0.19 | 81 | 1010.5 |
| 20260509161051 | 78 | 89 | 0.0 | 2.0 | 0.00 | 0.19 | 0.19 | 82 | 1010.6 |
| 20260509160547 | 78 | 329 | 1.0 | 4.0 | 0.00 | 0.19 | 0.19 | 83 | 1010.5 |
| 20260509160046 | 78 | 5 | 1.0 | 4.0 | 0.00 | 0.19 | 0.19 | 83 | 1010.4 |
| 20260509155546 | 78 | 351 | 2.0 | 4.0 | 0.00 | 0.19 | 0.19 | 84 | 1010.6 |
| 20260509155049 | 78 | 5 | 1.0 | 3.0 | 0.00 | 0.19 | 0.19 | 84 | 1010.6 |
| 20260509154545 | 78 | 147 | 0.0 | 3.0 | 0.00 | 0.19 | 0.19 | 85 | 1010.5 |
| 20260509154044 | 78 | 184 | 1.0 | 3.0 | 0.00 | 0.19 | 0.19 | 85 | 1010.3 |
| 20260509153543 | 77 | 185 | 0.0 | 3.0 | 0.00 | 0.19 | 0.19 | 85 | 1010.3 |
| 20260509153045 | 77 | 184 | 0.0 | 4.0 | 0.00 | 0.19 | 0.19 | 86 | 1010.2 |
| 20260509152543 | 77 | 183 | 2.0 | 5.0 | 0.00 | 0.19 | 0.19 | 85 | 1010.2 |
| 20260509152043 | 77 | 272 | 1.0 | 4.0 | 0.00 | 0.19 | 0.19 | 86 | 1010.5 |
| 20260509151542 | 77 | 272 | 1.0 | 4.0 | 0.00 | 0.19 | 0.19 | 86 | 1010.7 |
| 20260509151041 | 77 | 294 | 1.0 | 3.0 | 0.00 | 0.19 | 0.19 | 85 | 1010.8 |
| 20260509150541 | 77 | 244 | 0.0 | 2.0 | 0.00 | 0.19 | 0.19 | 84 | 1011.0 |
| 20260509150039 | 77 | 244 | 1.0 | 2.0 | 0.00 | 0.19 | 0.19 | 83 | 1011.1 |
| 20260509145539 | 77 | 244 | 0.0 | 2.0 | 0.00 | 0.19 | 0.19 | 83 | 1011.1 |
| 20260509145038 | 77 | 244 | 1.0 | 6.0 | 0.00 | 0.19 | 0.19 | 83 | 1010.9 |
| 20260509144536 | 76 | 182 | 4.0 | 6.0 | 0.00 | 0.19 | 0.19 | 83 | 1010.7 |
| 20260509144038 | 76 | 194 | 3.0 | 8.0 | 0.00 | 0.19 | 0.19 | 83 | 1010.5 |
| 20260509143535 | 76 | 168 | 6.0 | 8.0 | 0.00 | 0.19 | 0.19 | 84 | 1010.6 |
| 20260509143045 | 76 | 214 | 4.0 | 6.0 | 0.00 | 0.19 | 0.19 | 88 | 1010.9 |
| 20260509142535 | 76 | 223 | 4.0 | 6.0 | 0.00 | 0.19 | 0.19 | 88 | 1010.9 |
| 20260509142036 | 76 | 227 | 3.0 | 7.0 | 0.00 | 0.19 | 0.19 | 87 | 1011.0 |
| 20260509141535 | 76 | 239 | 4.0 | 7.0 | 0.00 | 0.19 | 0.19 | 87 | 1011.0 |
| 20260509141034 | 76 | 257 | 4.0 | 7.0 | 0.00 | 0.19 | 0.19 | 86 | 1010.9 |
| 20260509140533 | 76 | 305 | 2.0 | 7.0 | 0.00 | 0.19 | 0.19 | 87 | 1010.8 |
| 20260509140032 | 75 | 293 | 3.0 | 7.0 | 0.00 | 0.19 | 0.19 | 88 | 1011.1 |
| 20260509135534 | 75 | 279 | 4.0 | 10.0 | 0.00 | 0.19 | 0.19 | 89 | 1011.0 |
| 20260509135030 | 75 | 280 | 7.0 | 16.0 | 0.00 | 0.19 | 0.19 | 89 | 1011.3 |
| 20260509134531 | 75 | 327 | 8.0 | 16.0 | 0.00 | 0.19 | 0.19 | 89 | 1011.2 |
| 20260509134030 | 75 | 350 | 3.0 | 12.0 | 0.00 | 0.19 | 0.19 | 90 | 1011.2 |
| 20260509133529 | 75 | 215 | 5.0 | 16.0 | 0.00 | 0.19 | 0.19 | 91 | 1010.9 |
| 20260509133029 | 75 | 311 | 10.0 | 16.0 | 0.00 | 0.19 | 0.19 | 91 | 1011.0 |
| 20260509132529 | 75 | 306 | 8.0 | 15.0 | 0.00 | 0.19 | 0.19 | 91 | 1010.8 |
| 20260509132029 | 75 | 313 | 6.0 | 15.0 | 0.00 | 0.19 | 0.19 | 91 | 1010.3 |
| 20260509131528 | 75 | 202 | 11.0 | 15.0 | 0.00 | 0.19 | 0.19 | 91 | 1009.6 |
| 20260509131028 | 75 | 175 | 9.0 | 19.0 | 0.00 | 0.19 | 0.19 | 92 | 1009.1 |
| 20260509130527 | 75 | 164 | 12.0 | 25.0 | 0.00 | 0.19 | 0.19 | 92 | 1008.8 |
| 20260509130029 | 75 | 143 | 17.0 | 26.0 | 0.00 | 0.19 | 0.19 | 93 | 1007.9 |
| 20260509125533 | 75 | 130 | 20.0 | 26.0 | 0.01 | 0.19 | 0.19 | 93 | 1007.6 |
| 20260509125023 | 75 | 155 | 18.0 | 22.0 | 0.02 | 0.19 | 0.19 | 94 | 1009.0 |
| 20260509124534 | 75 | 164 | 12.0 | 23.0 | 0.02 | 0.19 | 0.19 | 94 | 1009.6 |
| 20260509124023 | 75 | 130 | 16.0 | 26.0 | 0.03 | 0.19 | 0.19 | 95 | 1009.3 |
| 20260509123523 | 75 | 149 | 20.0 | 26.0 | 0.05 | 0.19 | 0.19 | 95 | 1008.8 |
| 20260509123022 | 75 | 137 | 18.0 | 23.0 | 0.06 | 0.19 | 0.19 | 96 | 1008.7 |
| 20260509122521 | 74 | 120 | 16.0 | 23.0 | 0.07 | 0.19 | 0.19 | 96 | 1009.1 |
| 20260509122020 | 75 | 133 | 15.0 | 18.0 | 0.08 | 0.19 | 0.19 | 96 | 1009.6 |
| 20260509121528 | 75 | 131 | 13.0 | 17.0 | 0.08 | 0.19 | 0.19 | 96 | 1010.4 |
| 20260509121018 | 75 | 165 | 10.0 | 15.0 | 0.08 | 0.19 | 0.19 | 97 | 1010.9 |
| 20260509120517 | 74 | 169 | 8.0 | 11.0 | 0.09 | 0.19 | 0.19 | 97 | 1011.2 |
| 20260509120016 | 75 | 157 | 5.0 | 8.0 | 0.10 | 0.19 | 0.19 | 97 | 1011.6 |
| 20260509115516 | 75 | 164 | 6.0 | 10.0 | 0.12 | 0.18 | 0.18 | 97 | 1011.9 |
| 20260509115015 | 75 | 192 | 7.0 | 10.0 | 0.13 | 0.17 | 0.17 | 97 | 1012.2 |
| 20260509114536 | 75 | 198 | 6.0 | 9.0 | 0.15 | 0.17 | 0.17 | 97 | 1012.2 |
| 20260509114015 | 75 | 180 | 6.0 | 8.0 | 0.14 | 0.15 | 0.15 | 97 | 1012.3 |
| 20260509113516 | 75 | 187 | 6.0 | 10.0 | 0.13 | 0.14 | 0.14 | 97 | 1012.4 |
| 20260509113016 | 75 | 181 | 6.0 | 10.0 | 0.13 | 0.13 | 0.13 | 97 | 1012.4 |
| 20260509112514 | 75 | 182 | 4.0 | 8.0 | 0.12 | 0.12 | 0.12 | 97 | 1012.4 |
| 20260509112021 | 75 | 213 | 5.0 | 7.0 | 0.11 | 0.11 | 0.11 | 97 | 1012.4 |
| 20260509111513 | 74 | 192 | 3.0 | 8.0 | 0.11 | 0.11 | 0.11 | 97 | 1012.1 |
| 20260509111012 | 74 | 147 | 6.0 | 8.0 | 0.11 | 0.11 | 0.11 | 97 | 1011.7 |
| 20260509110514 | 74 | 152 | 2.0 | 6.0 | 0.10 | 0.10 | 0.10 | 97 | 1011.7 |
| 20260509110013 | 74 | 169 | 2.0 | 6.0 | 0.08 | 0.08 | 0.08 | 97 | 1011.7 |
| 20260509105510 | 74 | 175 | 5.0 | 6.0 | 0.06 | 0.06 | 0.06 | 97 | 1011.5 |
| 20260509105009 | 74 | 171 | 2.0 | 3.0 | 0.04 | 0.04 | 0.04 | 97 | 1011.3 |
| 20260509104507 | 74 | 245 | 1.0 | 4.0 | 0.01 | 0.01 | 0.01 | 96 | 1011.1 |
| 20260509104007 | 74 | 318 | 2.0 | 5.0 | 0.01 | 0.01 | 0.01 | 96 | 1010.8 |
| 20260509103506 | 74 | 271 | 3.0 | 5.0 | 0.01 | 0.01 | 0.01 | 96 | 1010.7 |
| 20260509103006 | 74 | 293 | 2.0 | 3.0 | 0.00 | 0.00 | 0.00 | 96 | 1010.4 |
| 20260509102506 | 74 | 211 | 1.0 | 3.0 | 0.00 | 0.00 | 0.00 | 96 | 1010.1 |
| 20260509102006 | 74 | 157 | 1.0 | 3.0 | 0.00 | 0.00 | 0.00 | 97 | 1009.9 |
| 20260509101507 | 74 | 180 | 1.0 | 3.0 | 0.00 | 0.00 | 0.00 | 97 | 1010.0 |
| 20260509101005 | 74 | 164 | 1.0 | 3.0 | 0.00 | 0.00 | 0.00 | 96 | 1010.0 |
| 20260509100507 | 74 | 164 | 1.0 | 3.0 | 0.00 | 0.00 | 0.00 | 96 | 1009.8 |
| 20260509100005 | 74 | 164 | 2.0 | 3.0 | 0.00 | 0.00 | 0.00 | 96 | 1009.6 |
| 20260509095510 | 74 | 177 | 0.0 | 3.0 | 0.00 | 0.00 | 0.00 | 96 | 1009.6 |
| 20260509095005 | 74 | 177 | 1.0 | 3.0 | 0.00 | 0.00 | 0.00 | 96 | 1009.8 |
| 20260509094504 | 74 | 128 | 1.0 | 2.0 | 0.00 | 0.00 | 0.00 | 96 | 1009.9 |
| 20260509094003 | 74 | 128 | 0.0 | 2.0 | 0.00 | 0.00 | 0.00 | 96 | 1009.9 |
| 20260509093503 | 74 | 128 | 1.0 | 2.0 | 0.00 | 0.00 | 0.00 | 96 | 1009.8 |
| 20260509093003 | 74 | 128 | 0.0 | 2.0 | 0.00 | 0.00 | 0.00 | 96 | 1009.9 |
| 20260509092502 | 74 | 128 | 0.0 | 3.0 | 0.00 | 0.00 | 0.00 | 96 | 1009.8 |
| 20260509092002 | 74 | 148 | 1.0 | 6.0 | 0.00 | 0.00 | 0.00 | 96 | 1009.6 |
| 20260509091504 | 74 | 139 | 3.0 | 6.0 | 0.00 | 0.00 | 0.00 | 96 | 1009.5 |
| 20260509091004 | 75 | 175 | 4.0 | 6.0 | 0.00 | 0.00 | 0.00 | 96 | 1009.8 |
| 20260509090502 | 75 | 167 | 4.0 | 6.0 | 0.00 | 0.00 | 0.00 | 96 | 1009.9 |
| 20260509090004 | 75 | 165 | 4.0 | 6.0 | 0.00 | 0.00 | 0.00 | 96 | 1009.6 |
| 20260509085501 | 74 | 153 | 4.0 | 6.0 | 0.00 | 0.00 | 0.00 | 96 | 1009.5 |
| 20260509085001 | 74 | 150 | 3.0 | 5.0 | 0.00 | 0.00 | 0.00 | 96 | 1009.3 |
| 20260509084504 | 74 | 141 | 2.0 | 4.0 | 0.00 | 0.00 | 0.00 | 96 | 1009.3 |
| 20260509084101 | 75 | 132 | 2.0 | 4.0 | 0.00 | 0.00 | 0.00 | 96 | 1009.4 |
| 20260509083559 | 75 | 115 | 3.0 | 4.0 | 0.00 | 0.00 | 0.00 | 96 | 1009.3 |
| 20260509083100 | 75 | 92 | 2.0 | 4.0 | 0.00 | 0.00 | 0.00 | 96 | 1009.4 |
| 20260509082559 | 75 | 103 | 2.0 | 4.0 | 0.00 | 0.00 | 0.00 | 96 | 1009.5 |
| 20260509082059 | 75 | 85 | 1.0 | 4.0 | 0.00 | 0.00 | 0.00 | 96 | 1009.5 |
| 20260509081559 | 75 | 77 | 3.0 | 5.0 | 0.00 | 0.00 | 0.00 | 96 | 1009.4 |
| 20260509081059 | 75 | 64 | 3.0 | 6.0 | 0.00 | 0.00 | 0.00 | 96 | 1009.5 |
| 20260509080558 | 75 | 66 | 4.0 | 7.0 | 0.00 | 0.00 | 0.00 | 96 | 1009.3 |
| 20260509080110 | 75 | 66 | 3.0 | 5.0 | 0.00 | 0.00 | 0.00 | 95 | 1009.5 |
| 20260509075557 | 75 | 55 | 2.0 | 4.0 | 0.00 | 0.01 | 0.00 | 95 | 1009.7 |
| 20260509075059 | 75 | 45 | 3.0 | 4.0 | 0.00 | 0.01 | 0.00 | 95 | 1009.6 |
| 20260509074558 | 75 | 61 | 3.0 | 4.0 | 0.00 | 0.01 | 0.00 | 95 | 1009.7 |
| 20260509074057 | 75 | 52 | 2.0 | 4.0 | 0.00 | 0.01 | 0.00 | 95 | 1009.7 |
| 20260509073556 | 75 | 107 | 0.0 | 0.0 | 0.00 | 0.01 | 0.00 | 95 | 1010.1 |
| 20260509073107 | 75 | 107 | 0.0 | 0.0 | 0.00 | 0.01 | 0.00 | 95 | 1010.1 |
| 20260509072554 | 75 | 144 | 0.0 | 0.0 | 0.00 | 0.01 | 0.00 | 95 | 1010.4 |
| 20260509072054 | 75 | 229 | 0.0 | 0.0 | 0.00 | 0.01 | 0.00 | 96 | 1010.4 |
| 20260509071556 | 75 | 229 | 0.0 | 2.0 | 0.00 | 0.01 | 0.00 | 96 | 1010.5 |
| 20260509071054 | 75 | 226 | 0.0 | 2.0 | 0.00 | 0.01 | 0.00 | 95 | 1010.5 |
| 20260509070554 | 75 | 192 | 0.0 | 0.0 | 0.00 | 0.01 | 0.00 | 95 | 1010.5 |
| 20260509070057 | 75 | 94 | 0.0 | 0.0 | 0.00 | 0.01 | 0.00 | 95 | 1010.6 |
| 20260509065554 | 75 | 94 | 0.0 | 0.0 | 0.00 | 0.01 | 0.00 | 95 | 1010.6 |
| 20260509065053 | 75 | 94 | 0.0 | 1.0 | 0.00 | 0.01 | 0.00 | 95 | 1010.5 |
| 20260509064553 | 75 | 94 | 0.0 | 1.0 | 0.00 | 0.01 | 0.00 | 95 | 1010.6 |
| 20260509064053 | 76 | 94 | 0.0 | 3.0 | 0.00 | 0.01 | 0.00 | 95 | 1010.5 |
| 20260509063553 | 75 | 106 | 1.0 | 4.0 | 0.00 | 0.01 | 0.00 | 95 | 1010.4 |
| 20260509063106 | 76 | 109 | 2.0 | 4.0 | 0.00 | 0.01 | 0.00 | 95 | 1010.3 |
| 20260509062553 | 76 | 108 | 2.0 | 4.0 | 0.00 | 0.01 | 0.00 | 95 | 1010.3 |
| 20260509062052 | 75 | 100 | 1.0 | 6.0 | 0.00 | 0.01 | 0.00 | 95 | 1010.2 |
| 20260509061556 | 75 | 111 | 3.0 | 6.0 | 0.00 | 0.01 | 0.00 | 95 | 1010.1 |